DW3319 Weather Reports


Display with metric or nautical units.
time (UTC)temp
F
wind
direction
speed
MPH
gust
MPH
rain 1hr
in
rain 24hr
in
rain mn
in
humidity
%
barometer
mb
20260906183057 90 102 2.0 5.0 0.00 0.00 0.00 75 1013.3
20260906181603 89 226 2.0 9.0 0.00 0.00 0.00 77 1013.5
20260906180056 89 312 3.0 9.0 0.00 0.00 0.00 76 1013.8
20260906174605 88 309 3.0 9.0 0.00 0.02 0.00 81 1014.0
20260906173048 88 226 2.0 8.0 0.00 0.02 0.00 79 1014.3
20260906171558 88 165 2.0 10.0 0.00 0.02 0.00 77 1014.6
20260906170055 88 22 2.0 10.0 0.00 0.02 0.00 79 1014.7
20260906164549 87 311 2.0 8.0 0.00 0.02 0.00 79 1014.7
20260906163052 86 334 3.0 9.0 0.00 0.02 0.00 80 1014.9
20260906161549 86 48 2.0 9.0 0.00 0.02 0.00 84 1014.8
20260906160053 85 47 2.0 8.0 0.00 0.02 0.00 84 1014.7
20260906154548 85 229 3.0 9.0 0.00 0.02 0.00 84 1014.5
20260906153111 84 309 2.0 7.0 0.00 0.02 0.00 86 1014.6
20260906151553 84 48 2.0 5.0 0.00 0.02 0.00 87 1014.6
20260906150050 82 26 2.0 8.0 0.00 0.02 0.00 89 1014.7
20260906144543 81 313 1.0 5.0 0.00 0.02 0.00 91 1014.9
20260906143043 80 51 1.0 2.0 0.00 0.02 0.00 97 1014.9
20260906141555 78 309 1.0 4.0 0.00 0.02 0.00 99 1014.7
20260906140052 77 131 1.0 3.0 0.00 0.02 0.00 100 1014.7
20260906134615 77 0 1.0 3.0 0.00 0.02 0.00 100 1014.6
20260906133054 76 0 1.0 2.0 0.00 0.02 0.00 100 1014.4
20260906131546 74 9 0.0 2.0 0.00 0.02 0.00 100 1014.5
20260906130055 74 309 0.0 2.0 0.00 0.02 0.00 100 1014.3
20260906124553 73 76 0.0 3.0 0.00 0.02 0.00 100 1014.4
20260906123050 73 9 1.0 3.0 0.00 0.02 0.00 100 1014.3
20260906121604 72 0 0.0 1.0 0.00 0.02 0.00 100 1014.0
20260906120046 72 0 0.0 1.0 0.00 0.02 0.00 99 1013.9
20260906114603 72 0 0.0 1.0 0.00 0.02 0.00 99 1013.8
20260906113049 72 0 0.0 1.0 0.00 0.02 0.00 99 1013.6
20260906111605 72 178 0.0 2.0 0.00 0.02 0.00 99 1013.3
20260906110044 72 0 0.0 2.0 0.00 0.02 0.00 99 1013.1
20260906104555 72 0 0.0 1.0 0.00 0.02 0.00 99 1013.0
20260906103048 73 0 0.0 1.0 0.00 0.02 0.00 99 1013.0
20260906101547 73 319 0.0 1.0 0.00 0.02 0.00 99 1012.9
20260906100046 73 178 0.0 1.0 0.00 0.02 0.00 99 1012.7
20260906094552 73 0 0.0 1.0 0.00 0.02 0.00 99 1012.7
20260906093056 73 0 0.0 2.0 0.00 0.02 0.00 99 1012.7
20260906091555 73 0 0.0 2.0 0.00 0.02 0.00 99 1012.8
20260906084555 74 0 0.0 2.0 0.00 0.02 0.00 99 1012.7
20260906083049 74 0 0.0 2.0 0.00 0.02 0.00 99 1012.6
20260906081601 74 0 0.0 2.0 0.00 0.02 0.00 99 1012.8
20260906080057 74 0 0.0 1.0 0.00 0.02 0.00 99 1013.0
20260906074550 74 0 0.0 2.0 0.00 0.02 0.00 99 1013.1
20260906073057 74 0 0.0 3.0 0.00 0.02 0.00 99 1013.1
20260906071548 74 309 0.0 1.0 0.00 0.02 0.00 99 1013.2
20260906070114 74 0 0.0 2.0 0.00 0.02 0.00 99 1013.1
20260906064549 74 319 0.0 3.0 0.00 0.02 0.00 99 1013.2
20260906063049 74 0 1.0 2.0 0.00 0.02 0.00 99 1013.1
20260906061632 74 0 0.0 2.0 0.00 0.02 0.00 99 1013.0
20260906060056 74 334 0.0 1.0 0.00 0.02 0.00 99 1012.9
20260906054549 75 119 0.0 2.0 0.00 0.02 0.00 99 1012.8
20260906053051 74 0 0.0 1.0 0.00 0.02 0.00 98 1012.7
20260906051545 75 0 0.0 2.0 0.00 0.02 0.00 99 1012.5
20260906050109 75 0 0.0 2.0 0.00 0.02 0.00 98 1012.6
20260906044548 75 146 0.0 2.0 0.00 0.02 0.02 98 1012.5
20260906043103 75 153 1.0 2.0 0.00 0.02 0.02 98 1012.6
20260906041555 75 0 0.0 1.0 0.00 0.02 0.02 98 1012.3
20260906040111 76 0 0.0 1.0 0.00 0.02 0.02 98 1012.2
20260906034549 76 243 1.0 2.0 0.00 0.02 0.02 98 1012.1
20260906033051 76 0 0.0 2.0 0.00 0.02 0.02 98 1012.1
20260906031601 76 126 0.0 2.0 0.00 0.02 0.02 98 1012.2
20260906030057 76 265 0.0 2.0 0.00 0.02 0.02 98 1012.2
20260906024550 76 9 0.0 2.0 0.00 0.02 0.02 98 1012.5
20260906023102 76 238 1.0 2.0 0.00 0.02 0.02 98 1012.7
20260906021556 76 105 0.0 2.0 0.00 0.02 0.02 97 1012.6
20260906020055 76 309 0.0 3.0 0.00 0.02 0.02 97 1012.4
20260906014559 76 0 0.0 2.0 0.00 0.02 0.02 97 1012.2
20260906013059 76 119 0.0 2.0 0.00 0.02 0.02 97 1012.2
20260906011554 76 0 0.0 4.0 0.00 0.02 0.02 96 1012.2
20260906010048 76 0 0.0 2.0 0.00 0.02 0.02 96 1012.1
20260906004607 77 0 0.0 2.0 0.00 0.02 0.02 95 1012.1
20260906003052 77 0 1.0 2.0 0.00 0.02 0.02 95 1012.2
20260906001545 77 0 0.0 3.0 0.00 0.02 0.02 95 1012.4
20260906000107 77 265 1.0 3.0 0.00 0.02 0.02 95 1012.5
20260905234555 78 247 2.0 7.0 0.00 0.02 0.02 95 1012.4
20260905233051 78 0 2.0 6.0 0.00 0.02 0.02 95 1012.7
20260905231549 78 323 1.0 4.0 0.00 0.02 0.02 94 1012.7
20260905230045 79 288 2.0 4.0 0.00 0.02 0.02 94 1012.7
20260905224602 79 249 1.0 5.0 0.00 0.02 0.02 94 1012.7
20260905223050 79 325 1.0 6.0 0.00 0.02 0.02 94 1012.8
20260905221544 79 325 0.0 3.0 0.00 0.02 0.02 93 1012.9
20260905214550 78 231 2.0 5.0 0.00 0.02 0.02 94 1012.9
20260905213057 78 250 2.0 7.0 0.00 0.02 0.02 94 1013.0
20260905211555 78 314 1.0 3.0 0.00 0.02 0.02 95 1013.0
20260905210049 78 137 1.0 4.0 0.00 0.02 0.02 95 1013.2
20260905204557 77 309 0.0 4.0 0.00 0.02 0.02 95 1013.2
20260905203050 77 259 2.0 8.0 0.00 0.02 0.02 95 1013.6
20260905201548 78 216 4.0 9.0 0.00 0.02 0.02 95 1014.0
20260905200053 78 196 2.0 6.0 0.00 0.02 0.02 94 1013.9
20260905194554 79 336 2.0 8.0 0.00 0.02 0.02 93 1014.1
20260905193047 80 336 2.0 10.0 0.00 0.02 0.02 92 1014.4
20260905191547 81 41 1.0 4.0 0.00 0.02 0.02 93 1014.4
20260905184600 80 119 0.0 7.0 0.02 0.02 0.02 93 1013.3